Belize, Belize

6:57 PM CST on October 23, 2017 (GMT -0600)
Philip S W Goldson International

Weather History for MZBZ - February, 2014

Change the Weather History Date:

Wednesday, February 26, 2014

  Actual Average Record
Temperature  
Mean Temperature 80 °F -  
Max Temperature 85 °F 85 °F 92 °F (2013)
Min Temperature 76 °F - 66 °F (1999)
Cooling Degree Days 16    
Growing Degree Days 30 (Base 50)    
Moisture  
Dew Point 73 °F    
Average Humidity 76    
Maximum Humidity 89    
Minimum Humidity 62    
Precipitation  
Precipitation 0.00 in 0.08 in - ()
Sea Level Pressure  
Sea Level Pressure 29.87 in    
Wind  
Wind Speed 5 mph ()    
Max Wind Speed 12 mph    
Max Gust Speed -    
Visibility 8.6 miles    
Events      
Averages and records for this station are not official NWS values.
T = Trace of Precipitation, MM = Missing Value Source: Averaged Metar Reports

Daily Weather History Graph

Daily Weather History Graph

Search for Another Location

Airport or City:

Trip Planner

Search our weather history database for the weather conditions in past years. The results will help you decide how hot, cold, wet, or windy it might be!

Date:

Astronomy

Feb. 26, 2014 Rise Set
Actual Time 6:13 AM CST 5:58 PM CST
Civil Twilight 5:51 AM CST 6:20 PM CST
Nautical Twilight 5:26 AM CST 6:45 PM CST
Astronomical Twilight 5:01 AM CST 7:11 PM CST
Moon 3:41 AM CST (2/26) 3:28 PM CST (2/26)
Length of Visible Light 12h 28m
Length of Day
11h 45m
Waning Crescent, 10% of the Moon is Illuminated
Feb 26
Waning Crescent
Mar 1
New
Mar 8
First Quarter
Mar 16
Full
Mar 23
Last Quarter

Hourly Weather History & Observations

Time (CST) Temp. Heat Index Dew Point Humidity Pressure Visibility Wind Dir Wind Speed Gust Speed Precip Events Conditions
12:00 AM 79 °F - 74 °F 81% 29.95 in 12 mi East 6.9 mph - -   Mostly Cloudy
3:00 AM 77 °F - 73 °F 85% 29.88 in 12 mi East 5.8 mph - -   Mostly Cloudy
5:00 AM 77.0 °F - 73.4 °F 89% 29.86 in 6.2 mi ESE 5.8 mph - N/A   Mostly Cloudy
6:00 AM 77 °F - 72 °F 81% 29.87 in 12 mi ESE 3.5 mph - -   Mostly Cloudy
6:00 AM 77.0 °F - 71.6 °F 83% 29.87 in 6.2 mi ESE 3.5 mph - N/A   Mostly Cloudy
7:00 AM 77.0 °F - 73.4 °F 89% 29.89 in 6.2 mi Calm Calm - N/A   Partly Cloudy
8:00 AM 80.6 °F 85.4 °F 73.4 °F 79% 29.91 in 6.2 mi SSE 11.5 mph - N/A   Mostly Cloudy
9:00 AM 82 °F - 73 °F 69% 29.93 in 14 mi SE 9.2 mph - -   Mostly Cloudy
9:00 AM 82.4 °F 88.2 °F 73.4 °F 74% 29.92 in 6.2 mi SE 9.2 mph - N/A   Mostly Cloudy
10:00 AM 84.2 °F 92.3 °F 75.2 °F 74% 29.93 in 6.2 mi SE 6.9 mph - N/A   Mostly Cloudy
11:00 AM 84.2 °F 92.3 °F 75.2 °F 74% 29.91 in 6.2 mi SE 8.1 mph - N/A   Mostly Cloudy
12:00 PM 84 °F - 73 °F 63% 29.89 in 14 mi SE 6.9 mph - -   Mostly Cloudy
12:00 PM 84.2 °F 90.9 °F 73.4 °F 70% 29.89 in 6.2 mi SE 6.9 mph - N/A   Mostly Cloudy
1:00 PM 84.2 °F 90.9 °F 73.4 °F 70% 29.85 in 6.2 mi SE 6.9 mph - N/A   Scattered Clouds
2:00 PM 84.2 °F 90.9 °F 73.4 °F 70% 29.82 in 6.2 mi SE 8.1 mph - N/A   Scattered Clouds
3:00 PM 85 °F - 74 °F 62% 29.80 in 14 mi SE 6.9 mph - -   Scattered Clouds
3:00 PM 84.2 °F 90.9 °F 73.4 °F 70% 29.79 in 6.2 mi SE 6.9 mph - N/A   Partly Cloudy
4:00 PM 84.2 °F 90.9 °F 73.4 °F 70% 29.79 in 6.2 mi ESE 6.9 mph - N/A   Partly Cloudy
5:00 PM 82.4 °F 88.2 °F 73.4 °F 74% 29.80 in 6.2 mi SE 4.6 mph - N/A   Partly Cloudy
6:00 PM 81 °F - 74 °F 72% 29.81 in 12 mi East 4.6 mph - -   Scattered Clouds
6:00 PM 80.6 °F 85.4 °F 73.4 °F 79% 29.81 in 6.2 mi East 4.6 mph - N/A   Partly Cloudy
9:00 PM 76 °F - 73 °F 87% 29.88 in 12 mi ESE 2.3 mph - -   Clear